This is the latest recevied weather packets stored in our database for station/object N8GD. If no packets are shown the sender has not sent any weather packets the latest 10 day(s).
| Time | Temp. | Humidity | Pressure | Rain* | Wind** | Luminosity | Snow |
|---|---|---|---|---|---|---|---|
| 1777127875 | 15.56° C | 97% | 1007.4 hPa | 0.51 mm | - | - | - |
| 1777126974 | 15.56° C | 97% | 1007.5 hPa | 0.51 mm | - | - | - |
| 1777126075 | 15.56° C | 97% | 1007.3 hPa | 0.51 mm | - | - | - |
| 1777126020 | 15.56° C | 97% | 1007.3 hPa | 0.51 mm | - | - | - |
| 1777125174 | 15.56° C | 97% | 1007.5 hPa | 0.25 mm | - | - | - |
| 1777124274 | 15.56° C | 97% | 1007.2 hPa | 0 mm | - | - | - |
| 1777123376 | 15.56° C | 97% | 1007.3 hPa | 0 mm | - | - | - |
| 1777122475 | 15.56° C | 97% | 1007.2 hPa | 0 mm | - | - | - |
| 1777121575 | 15.56° C | 96% | 1007.2 hPa | 0.25 mm | - | - | - |
| 1777120676 | 15.56° C | 96% | 1007.1 hPa | 0.76 mm | - | - | - |
| 1777120662 | 15.56° C | 96% | 1007.1 hPa | 0.76 mm | - | - | - |
| 1777119775 | 15.56° C | 96% | 1007 hPa | 1.02 mm | - | - | - |
| 1777118874 | 15° C | 96% | 1007.1 hPa | 1.52 mm | - | - | - |
| 1777117975 | 15° C | 96% | 1007.2 hPa | 1.27 mm | - | - | - |
| 1777117075 | 15° C | 95% | 1007.1 hPa | 1.02 mm | - | - | - |
| 1777116174 | 15° C | 95% | 1007.1 hPa | 1.02 mm | - | - | - |
| 1777115275 | 15° C | 94% | 1006.7 hPa | 0.51 mm | - | - | - |
| 1777115253 | 15° C | 94% | 1006.7 hPa | 0.51 mm | - | - | - |
| 1777115219 | 15° C | 94% | 1006.7 hPa | 0.51 mm | - | - | - |
| 1777114376 | 15° C | 94% | 1006.7 hPa | 0.25 mm | - | - | - |
| 1777113474 | 15° C | 93% | 1006.4 hPa | 0.25 mm | - | - | - |
| 1777112575 | 15° C | 92% | 1006.2 hPa | 0 mm | - | - | - |
| 1777112518 | 15° C | 92% | 1006.2 hPa | 0 mm | - | - | - |
| 1777111675 | 15.56° C | 92% | 1006.2 hPa | 0 mm | - | - | - |
| 1777111649 | 15.56° C | 92% | 1006.2 hPa | 0 mm | - | - | - |
* Rain latest hour (hover to see other rain measurements)
** Current wind speed in m/s (hover to see current wind gust speed)